Flag for Hungary Weather past 2 weeks in Győr, Hungary

Now
75 °F

Mild.


Feels Like: 77 °F
Forecast: 62 / 92 °F
Wind: 5 mph from South

Location: Gyor

Current Time: Aug 28, 2015 at 9:50:42 AM

Latest Report: Aug 28, 2015 at 9:00 AM


Visibility: N/A

Pressure: 30.02 "Hg

Humidity: 61%

Dew point: 60 °F

Location of GyőrLocation

Historic Weather in Győr — Graph

°F

Győr temperature yesterday

Maximum temperature yesterday: 83 °F (at 2:00 PM)
Minimum temperature yesterday: 55 °F (at 6:00 AM)
Average temperature yesterday: 71 °F

Past Weeks' High & Low Weather Summary

 TemperatureHumidityPressure
High98 °F (Aug 13, 4:00 PM)100% (Aug 17, 1:00 AM)30.23 "Hg (Aug 17, 1:00 AM)
Low52 °F (Aug 22, 5:00 AM)27% (Aug 13, 4:00 PM)29.68 "Hg (Aug 16, 9:00 PM)
Average71 °F73%29.97 "Hg
* Reported Aug 13 8:00 AM — Aug 28 8:00 AM, Győr, Weather by CustomWeather, © 2015

Note: Actual official high and low records may vary slightly from our data, if they occured in-between our weather recording intervals... More about our weather records

Advertising

Győr weather history for previous 24 hours

 ConditionsComfort  
Time TempWeatherWind HumidityBarometerVisibility
8:00 AM
Fri, Aug 28
71 °FMild.1 mph75%30.01 "HgN/A
7:00 AM65 °FMild.2 mph96%30.00 "HgN/A
5:00 AM69 °FMild.2 mph84%29.98 "HgN/A
4:00 AM68 °FMild.2 mph93%29.98 "HgN/A
3:00 AM68 °FMild.1 mph91%29.99 "HgN/A
2:00 AM71 °FMild.2 mph88%29.99 "HgN/A
1:00 AM67 °FMild.2 mph100%30.01 "HgN/A
11:00 PM
Thu, Aug 27
67 °FMild.No wind99%30.02 "HgN/A
10:00 PM69 °FMild.No wind93%30.01 "HgN/A
9:00 PM73 °FMild.1 mph77%30.01 "HgN/A
8:00 PM78 °FWarm.2 mph65%30.00 "HgN/A
7:00 PM80 °FWarm.2 mph59%30.00 "HgN/A
6:00 PM82 °FWarm.5 mph56%30.01 "HgN/A
5:00 PM83 °FWarm.5 mph54%30.01 "HgN/A
4:00 PM83 °FWarm.3 mph53%30.02 "HgN/A
3:00 PM83 °FWarm.2 mph56%30.03 "HgN/A
2:00 PM83 °FWarm.3 mph54%30.04 "HgN/A
1:00 PM81 °FWarm.3 mph55%30.05 "HgN/A
12:00 PM78 °FWarm.6 mph60%30.07 "HgN/A
11:00 AM75 °FMild.5 mph66%30.08 "HgN/A
10:00 AM75 °FMild.5 mph64%30.07 "HgN/A
9:00 AM72 °FMild.2 mph66%30.07 "HgN/A
Weather by CustomWeather, © 2015

See weather overviewHow to use our weather pages